TimeAEDT,TemperatureF,Dew PointF,Humidity,Sea Level PressureIn,VisibilityMPH,Wind Direction,Wind SpeedMPH,Gust SpeedMPH,PrecipitationIn,Events,Conditions,WindDirDegrees,DateUTC
12:00 AM,66,39,25,29.78,25,WSW,18.4,,,,Partly Cloudy,240,2012-11-01 13:00:00
12:00 AM,66.2,39.2,37,29.77,-9999.0,WSW,18.4,-,N/A,,Clear,240,2012-11-01 13:00:00
12:30 AM,66.2,39.2,37,29.77,-9999.0,WSW,17.3,-,N/A,,Clear,240,2012-11-01 13:30:00
1:00 AM,64.4,41.0,42,29.77,-9999.0,WSW,15.0,-,N/A,,Clear,240,2012-11-01 14:00:00
2:00 AM,64,44,36,29.81,,SW,16.1,,,,,220,2012-11-01 15:00:00
2:00 AM,64.4,42.8,45,29.80,-9999.0,SW,16.1,-,N/A,,Clear,220,2012-11-01 15:00:00
2:30 AM,64.4,41.0,42,29.80,-9999.0,SSW,12.7,-,N/A,,Clear,210,2012-11-01 15:30:00
3:00 AM,63,41,33,29.82,25,SW,16.1,,,,Partly Cloudy,230,2012-11-01 16:00:00
3:00 AM,62.6,41.0,45,29.80,-9999.0,SW,16.1,-,N/A,,Clear,230,2012-11-01 16:00:00
3:30 AM,62.6,41.0,45,29.80,-9999.0,SW,16.1,-,N/A,,Clear,230,2012-11-01 16:30:00
4:00 AM,62.6,41.0,45,29.80,6.2,SW,19.6,-,N/A,,Partly Cloudy,230,2012-11-01 17:00:00
4:30 AM,62.6,44.6,52,29.83,6.2,SSW,12.7,-,N/A,,Scattered Clouds,200,2012-11-01 17:30:00
5:00 AM,61,42,37,29.86,,SW,13.8,,,,,220,2012-11-01 18:00:00
5:00 AM,60.8,41.0,48,29.86,6.2,SW,13.8,-,N/A,,Partly Cloudy,220,2012-11-01 18:00:00
5:18 AM,62.6,50.0,63,29.86,6.2,South,21.9,33.4,N/A,,Partly Cloudy,170,2012-11-01 18:18:00
5:30 AM,60.8,51.8,72,29.86,6.2,South,24.2,-,N/A,,Scattered Clouds,170,2012-11-01 18:30:00
6:00 AM,62,47,48,29.88,16,South,25.3,,,Rain,Light Rain Showers,170,2012-11-01 19:00:00
6:00 AM,62.6,46.4,55,29.86,6.2,South,25.3,-,N/A,,Mostly Cloudy,170,2012-11-01 19:00:00
6:30 AM,62.6,42.8,48,29.89,6.2,South,21.9,-,N/A,,Scattered Clouds,190,2012-11-01 19:30:00
7:00 AM,62.6,44.6,52,29.92,6.2,South,20.7,-,N/A,,Partly Cloudy,190,2012-11-01 20:00:00
7:30 AM,62.6,46.4,55,29.92,6.2,South,21.9,-,N/A,,Partly Cloudy,170,2012-11-01 20:30:00
8:00 AM,62,44,41,29.96,,South,25.3,,,,,170,2012-11-01 21:00:00
8:00 AM,60.8,44.6,55,29.95,6.2,South,25.3,-,N/A,,Partly Cloudy,170,2012-11-01 21:00:00
8:30 AM,62.6,44.6,52,29.95,6.2,South,24.2,-,N/A,,Partly Cloudy,190,2012-11-01 21:30:00
9:00 AM,62,45,42,29.99,19,South,24.2,,,,Partly Cloudy,180,2012-11-01 22:00:00
9:00 AM,62.6,44.6,52,29.98,6.2,South,24.2,-,N/A,,Partly Cloudy,180,2012-11-01 22:00:00
9:30 AM,62.6,44.6,52,29.98,6.2,South,25.3,-,N/A,,Partly Cloudy,180,2012-11-01 22:30:00
10:30 AM,62.6,44.6,52,29.98,6.2,South,19.6,-,N/A,,Partly Cloudy,180,2012-11-01 23:30:00
11:00 AM,62,43,38,30.00,,South,19.6,,,,,180,2012-11-02 00:00:00
11:00 AM,62.6,42.8,48,29.98,6.2,South,19.6,-,N/A,,Partly Cloudy,180,2012-11-02 00:00:00
11:30 AM,62.6,42.8,48,29.98,6.2,South,18.4,-,N/A,,Partly Cloudy,180,2012-11-02 00:30:00
12:00 PM,63,44,38,29.99,19,South,19.6,,,,Partly Cloudy,180,2012-11-02 01:00:00
12:00 PM,62.6,44.6,52,29.98,6.2,South,19.6,-,N/A,,Partly Cloudy,180,2012-11-02 01:00:00
12:30 PM,64.4,46.4,52,29.98,6.2,South,19.6,-,N/A,,Partly Cloudy,170,2012-11-02 01:30:00
1:00 PM,64.4,44.6,49,29.98,6.2,South,19.6,-,N/A,,Partly Cloudy,180,2012-11-02 02:00:00
1:30 PM,64.4,44.6,49,29.98,6.2,South,19.6,-,N/A,,Partly Cloudy,180,2012-11-02 02:30:00
2:30 PM,64.4,46.4,52,29.98,6.2,South,19.6,-,N/A,,Partly Cloudy,170,2012-11-02 03:30:00
3:00 PM,64,47,42,30.00,19,South,18.4,,,,Partly Cloudy,170,2012-11-02 04:00:00
3:00 PM,64.4,46.4,52,29.98,6.2,South,18.4,-,N/A,,Partly Cloudy,170,2012-11-02 04:00:00
3:03 PM,62.6,46.4,55,29.98,6.2,South,18.4,29.9,N/A,,Partly Cloudy,180,2012-11-02 04:03:00
3:30 PM,64.4,46.4,52,29.98,6.2,South,19.6,-,N/A,,Partly Cloudy,170,2012-11-02 04:30:00
4:00 PM,64.4,48.2,56,29.98,6.2,South,18.4,-,N/A,,Partly Cloudy,170,2012-11-02 05:00:00
5:00 PM,65,44,35,30.00,,SSE,18.4,,,,,150,2012-11-02 06:00:00
5:00 PM,66.2,44.6,46,29.98,6.2,SSE,18.4,-,N/A,,Partly Cloudy,150,2012-11-02 06:00:00
6:00 PM,64,46,41,30.01,19,SE,16.1,,,,Partly Cloudy,140,2012-11-02 07:00:00
6:00 PM,64.4,46.4,52,30.01,6.2,SE,16.1,-,N/A,,Partly Cloudy,140,2012-11-02 07:00:00
6:30 PM,64.4,44.6,49,30.01,6.2,SE,15.0,-,N/A,,Partly Cloudy,140,2012-11-02 07:30:00
7:00 PM,62.6,46.4,55,30.04,6.2,SE,13.8,-,N/A,,Partly Cloudy,140,2012-11-02 08:00:00
7:30 PM,62.6,48.2,59,30.04,6.2,SSE,13.8,-,N/A,,Mostly Cloudy,150,2012-11-02 08:30:00
8:00 PM,63,49,50,30.07,,SE,13.8,,,,,140,2012-11-02 09:00:00
8:00 PM,62.6,48.2,59,30.06,6.2,SE,13.8,-,N/A,,Mostly Cloudy,140,2012-11-02 09:00:00
8:30 PM,62.6,48.2,59,30.06,6.2,SE,15.0,-,N/A,,Mostly Cloudy,140,2012-11-02 09:30:00
9:00 PM,63,48,47,30.09,19,SE,13.8,,,,Partly Cloudy,140,2012-11-02 10:00:00
9:00 PM,62.6,48.2,59,30.06,6.2,SE,13.8,-,N/A,,Mostly Cloudy,140,2012-11-02 10:00:00
9:30 PM,62.6,48.2,59,30.09,6.2,SE,15.0,-,N/A,,Mostly Cloudy,140,2012-11-02 10:30:00
10:00 PM,62.6,50.0,63,30.09,6.2,SE,15.0,-,N/A,,Mostly Cloudy,140,2012-11-02 11:00:00
10:30 PM,62.6,48.2,59,30.09,6.2,SE,13.8,-,N/A,,Mostly Cloudy,140,2012-11-02 11:30:00
11:00 PM,62,48,50,30.10,,SE,11.5,,,,,140,2012-11-02 12:00:00
11:00 PM,62.6,48.2,59,30.09,6.2,SE,11.5,-,N/A,,Mostly Cloudy,140,2012-11-02 12:00:00
11:30 PM,62.6,50.0,63,30.09,6.2,SE,12.7,-,N/A,,Mostly Cloudy,140,2012-11-02 12:30:00